 day,  time,  air_temp(C),  RH(%),  ground_temp10cm(C),  ground_temp20cm(C),  ground_temp40cm(C),  precipitation(mm/h),  Solar_Radiation(MJ/m2h),  lack, 
 05/04/01, 01:00,  -4.0,  74,   0.4,   0.8,   1.5,   0.5,  0.00, 
 05/04/01, 02:00,  -4.3,  69,   0.4,   0.8,   1.5,   0.0,  0.00, 
 05/04/01, 03:00,  -4.4,  64,   0.4,   0.8,   1.4,   0.0,  0.00, 
 05/04/01, 04:00,  -5.7,  72,   0.4,   0.8,   1.5,   0.0,  0.00, 
 05/04/01, 05:00,  -6.4,  67,   0.4,   0.8,   1.5,   0.0,  0.00, 
 05/04/01, 06:00,  -5.3,  49,   0.4,   0.8,   1.5,   0.0,  0.00, 
 05/04/01, 07:00,  -4.1,  48,   0.4,   0.8,   1.5,   0.0,  0.33, 
 05/04/01, 08:00,  -2.1,  46,   0.4,   0.8,   1.4,   0.0,  1.14, 
 05/04/01, 09:00,  -1.3,  46,   0.4,   0.8,   1.5,   0.0,  1.98, 
 05/04/01, 10:00,   0.7,  48,   0.4,   0.8,   1.5,   0.0,  2.64, 
 05/04/01, 11:00,   1.4,  39,   0.4,   0.8,   1.4,   0.0,  3.15, 
 05/04/01, 12:00,   2.6,  34,   0.4,   0.8,   1.5,   0.0,  3.38, 
 05/04/01, 13:00,   3.0,  35,   0.5,   0.8,   1.5,   0.0,  3.36, 
 05/04/01, 14:00,   2.6,  33,   0.3,   0.8,   1.5,   0.0,  3.16, 
 05/04/01, 15:00,   3.2,  34,   0.3,   0.7,   1.5,   0.0,  2.65, 
 05/04/01, 16:00,   2.4,  33,   0.3,   0.7,   1.5,   0.0,  2.02, 
 05/04/01, 17:00,   2.1,  38,   0.3,   0.7,   1.5,   0.0,  1.18, 
 05/04/01, 18:00,   0.6,  44,   0.3,   0.7,   1.5,   0.0,  0.35, 
 05/04/01, 19:00,  -1.0,  51,   0.3,   0.7,   1.5,   0.0,  0.00, 
 05/04/01, 20:00,   0.0,  43,   0.3,   0.7,   1.5,   0.0,  0.00, 
 05/04/01, 21:00,  -1.8,  57,   0.3,   0.7,   1.5,   0.0,  0.00, 
 05/04/01, 22:00,  -1.9,  55,   0.4,   0.7,   1.5,   0.0,  0.00, 
 05/04/01, 23:00,  -1.8,  51,   0.4,   0.7,   1.5,   0.0,  0.00, 
 05/04/02, 00:00,  -1.0,  41,   0.4,   0.7,   1.5,   0.0,  0.00, 
 05/04/02, 01:00,  -1.2,  48,   0.4,   0.7,   1.5,   0.0,  0.00, 
 05/04/02, 02:00,  -0.9,  49,   0.4,   0.7,   1.5,   0.0,  0.00, 
 05/04/02, 03:00,  -1.1,  54,   0.4,   0.7,   1.5,   0.0,  0.00, 
 05/04/02, 04:00,  -1.2,  69,   0.4,   0.8,   1.5,   0.0,  0.00, 
 05/04/02, 05:00,  -0.4,  72,   0.4,   0.8,   1.5,   0.0,  0.00, 
 05/04/02, 06:00,   0.0,  74,   0.4,   0.8,   1.5,   0.0,  0.00, 
 05/04/02, 07:00,   1.4,  73,   0.4,   0.8,   1.4,   0.0,  0.25, 
 05/04/02, 08:00,   3.1,  70,   0.4,   0.8,   1.4,   0.0,  0.87, 
 05/04/02, 09:00,   3.9,  58,   0.4,   0.8,   1.5,   0.0,  1.49, 
 05/04/02, 10:00,   5.4,  50,   0.4,   0.8,   1.5,   0.0,  1.96, 
 05/04/02, 11:00,   6.3,  54,   0.4,   0.8,   1.4,   0.0,  2.22, 
 05/04/02, 12:00,   7.2,  46,   0.4,   0.8,   1.4,   0.0,  2.07, 
 05/04/02, 13:00,   7.5,  43,   0.4,   0.8,   1.5,   0.0,  1.82, 
 05/04/02, 14:00,   7.3,  50,   0.4,   0.8,   1.4,   0.0,  1.41, 
 05/04/02, 15:00,   6.5,  55,   0.4,   0.8,   1.5,   0.0,  1.47, 
 05/04/02, 16:00,   6.3,  54,   0.4,   0.8,   1.5,   0.0,  0.91, 
 05/04/02, 17:00,   4.4,  70,   0.4,   0.7,   1.5,   0.0,  0.44, 
 05/04/02, 18:00,   4.3,  73,   0.4,   0.7,   1.5,   0.0,  0.09, 
 05/04/02, 19:00,   4.1,  77,   0.4,   0.7,   1.5,   0.0,  0.00, 
 05/04/02, 20:00,   3.2,  87,   0.4,   0.7,   1.3,   0.0,  0.00, 
 05/04/02, 21:00,   2.5,  99,   0.4,   0.7,   1.5,   0.5,  0.00, 
 05/04/02, 22:00,   2.4,  99,   0.4,   0.7,   1.5,   0.0,  0.00, 
 05/04/02, 23:00,   1.9,  99,   0.4,   0.7,   1.5,   0.0,  0.00, 
 05/04/03, 00:00,   1.9,  99,   0.4,   0.7,   1.5,   1.5,  0.00, 
 05/04/03, 01:00,   2.1,  99,   0.4,   0.7,   1.5,   0.5,  0.00, 
 05/04/03, 02:00,   2.6,  99,   0.3,   0.7,   1.5,   0.0,  0.00, 
 05/04/03, 03:00,   2.3,  99,   0.3,   0.7,   1.4,   0.0,  0.00, 
 05/04/03, 04:00,   2.8,  98,   0.3,   0.7,   1.4,   0.0,  0.00, 
 05/04/03, 05:00,   2.7,  98,   0.3,   0.7,   1.5,   0.0,  0.00, 
 05/04/03, 06:00,   2.4,  99,   0.3,   0.7,   1.4,   0.5,  0.00, 
 05/04/03, 07:00,   2.0,  99,   0.3,   0.7,   1.4,   0.0,  0.03, 
 05/04/03, 08:00,   2.6,  99,   0.3,   0.7,   1.4,   0.0,  0.30, 
 05/04/03, 09:00,   2.9,  99,   0.3,   0.7,   1.5,   0.0,  0.28, 
 05/04/03, 10:00,   3.0,  99,   0.3,   0.7,   1.5,   0.5,  0.42, 
 05/04/03, 11:00,   3.1,  99,   0.4,   0.7,   1.5,   0.0,  0.39, 
 05/04/03, 12:00,   3.3,  99,   0.4,   0.7,   1.4,   0.0,  0.51, 
 05/04/03, 13:00,   3.5,  99,   0.4,   0.7,   1.4,   0.5,  0.47, 
 05/04/03, 14:00,   3.0,  99,   0.4,   0.7,   1.4,   0.0,  0.36, 
 05/04/03, 15:00,   3.5,  99,   0.4,   0.7,   1.5,   0.0,  0.55, 
 05/04/03, 16:00,   3.8,  99,   0.4,   0.7,   1.5,   0.0,  0.88, 
 05/04/03, 17:00,   4.2,  95,   0.4,   0.7,   1.5,   0.0,  0.50, 
 05/04/03, 18:00,   3.6,  99,   0.4,   0.7,   1.5,   0.0,  0.32, 
 05/04/03, 19:00,   1.0,  99,   0.4,   0.7,   1.5,   0.0,  0.00, 
 05/04/03, 20:00,   0.1,  99,   0.4,   0.7,   1.5,   0.0,  0.00, 
 05/04/03, 21:00,  -0.6,  99,   0.4,   0.7,   1.4,   0.0,  0.00, 
 05/04/03, 22:00,  -0.9,  99,   0.4,   0.7,   1.5,   0.5,  0.00, 
 05/04/03, 23:00,  -1.4,  99,   0.4,   0.7,   1.5,   0.5,  0.00, 
 05/04/04, 00:00,  -2.0,  99,   0.4,   0.7,   1.5,   1.0,  0.00, 
 05/04/04, 01:00,  -2.5,  99,   0.4,   0.7,   1.4,   2.0,  0.00, 
 05/04/04, 02:00,  -2.8,  99,   0.4,   0.7,   1.5,   4.5,  0.00, 
 05/04/04, 03:00,  -3.0,  99,   0.4,   0.7,   1.4,   2.5,  0.00, 
 05/04/04, 04:00,  -3.3,  99,   0.4,   0.7,   1.4,   1.5,  0.00, 
 05/04/04, 05:00,  -3.9,  98,   0.4,   0.7,   1.4,   1.5,  0.00, 
 05/04/04, 06:00,  -3.8,  99,   0.4,   0.7,   1.5,   0.5,  0.00, 
 05/04/04, 07:00,  -4.2,  99,   0.4,   0.7,   1.4,   1.5,  0.00, 
 05/04/04, 08:00,  -4.3,  98,   0.4,   0.7,   1.4,   0.5,  0.06, 
 05/04/04, 09:00,  -4.3,  99,   0.4,   0.7,   1.4,   0.0,  0.21, 
 05/04/04, 10:00,  -4.4,  99,   0.4,   0.7,   1.5,   0.0,  0.31, 
 05/04/04, 11:00,  -4.1,  99,   0.4,   0.7,   1.5,   0.0,  0.45, 
 05/04/04, 12:00,  -4.0,  99,   0.4,   0.7,   1.4,   0.0,  0.55, 
 05/04/04, 13:00,  -3.6,  98,   0.4,   0.7,   1.4,   0.0,  0.55, 
 05/04/04, 14:00,  -3.2,  97,   0.4,   0.8,   1.4,   0.0,  0.78, 
 05/04/04, 15:00,  -2.3,  95,   0.4,   0.8,   1.3,   0.0,  1.40, 
 05/04/04, 16:00,  -2.7,  95,   0.4,   0.8,   1.3,   0.0,  1.06, 
 05/04/04, 17:00,  -3.1,  91,   0.4,   0.8,   1.3,   0.5,  0.85, 
 05/04/04, 18:00,  -3.3,  91,   0.4,   0.8,   1.5,   0.0,  0.66, 
 05/04/04, 19:00,  -3.8,  92,   0.4,   0.8,   1.5,   0.0,  0.01, 
 05/04/04, 20:00,  -5.2,  96,   0.4,   0.8,   1.5,   0.0,  0.00, 
 05/04/04, 21:00,  -7.3,  97,   0.4,   0.8,   1.5,   0.0,  0.00, 
 05/04/04, 22:00,  -6.7,  95,   0.4,   0.8,   1.5,   0.0,  0.00, 
 05/04/04, 23:00,  -6.0,  92,   0.4,   0.8,   1.5,   0.0,  0.00, 
 05/04/05, 00:00,  -4.4,  55,   0.4,   0.8,   1.4,   0.0,  0.00, 
 05/04/05, 01:00,  -5.5,  67,   0.4,   0.8,   1.4,   0.0,  0.00, 
 05/04/05, 02:00,  -2.8,  42,   0.4,   0.8,   1.5,   0.0,  0.00, 
 05/04/05, 03:00,  -3.4,  57,   0.4,   0.8,   1.4,   0.0,  0.00, 
 05/04/05, 04:00,   0.4,  26,   0.4,   0.8,   1.4,   0.0,  0.00, 
 05/04/05, 05:00,   1.7,  18,   0.4,   0.8,   1.5,   0.0,  0.00, 
 05/04/05, 06:00,  -1.3,  45,   0.4,   0.8,   1.4,   0.0,  0.00, 
 05/04/05, 07:00,   0.1,  41,   0.4,   0.8,   1.5,   0.0,  0.20, 
 05/04/05, 08:00,   1.8,  28,   0.4,   0.8,   1.4,   0.0,  0.42, 
 05/04/05, 09:00,   3.7,  44,   0.4,   0.8,   1.4,   0.0,  1.22, 
 05/04/05, 10:00,   5.1,  43,   0.4,   0.8,   1.5,   0.0,  2.64, 
 05/04/05, 11:00,   5.4,  44,   0.4,   0.8,   1.5,   0.0,  3.11, 
 05/04/05, 12:00,   8.0,  48,   0.5,   0.8,   1.5,   0.0,  3.33, 
 05/04/05, 13:00,   7.6,  48,   0.5,   0.8,   1.5,   0.0,  3.32, 
 05/04/05, 14:00,   9.0,  38,   0.5,   0.8,   1.5,   0.0,  3.06, 
 05/04/05, 15:00,   9.5,  37,   0.5,   0.9,   1.5,   0.0,  2.61, 
 05/04/05, 16:00,   9.4,  39,   0.5,   0.8,   1.5,   0.0,  1.95, 
 05/04/05, 17:00,   8.3,  44,   0.5,   0.8,   1.5,   0.0,  1.20, 
 05/04/05, 18:00,   7.0,  49,   0.5,   0.8,   1.5,   0.0,  0.41, 
 05/04/05, 19:00,   3.7,  68,   0.5,   0.8,   1.5,   0.0,  0.00, 
 05/04/05, 20:00,   3.5,  69,   0.4,   0.8,   1.5,   0.0,  0.00, 
 05/04/05, 21:00,   6.7,  51,   0.4,   0.7,   1.5,   0.0,  0.00, 
 05/04/05, 22:00,   7.9,  45,   0.4,   0.8,   1.5,   0.0,  0.00, 
 05/04/05, 23:00,   4.8,  56,   0.4,   0.8,   1.5,   0.0,  0.00, 
 05/04/06, 00:00,   3.6,  63,   0.4,   0.8,   1.5,   0.0,  0.00, 
 05/04/06, 01:00,   4.4,  56,   0.4,   0.7,   1.4,   0.0,  0.00, 
 05/04/06, 02:00,   4.3,  57,   0.4,   0.8,   1.5,   0.0,  0.00, 
 05/04/06, 03:00,   5.3,  50,   0.4,   0.8,   1.5,   0.0,  0.00, 
 05/04/06, 04:00,   4.5,  51,   0.4,   0.8,   1.5,   0.0,  0.00, 
 05/04/06, 05:00,  10.5,  28,   0.4,   0.8,   1.5,   0.0,  0.00, 
 05/04/06, 06:00,   9.3,  31,   0.4,   0.8,   1.5,   0.0,  0.00, 
 05/04/06, 07:00,   9.9,  34,   0.4,   0.8,   1.5,   0.0,  0.39, 
 05/04/06, 08:00,  12.3,  24,   0.4,   0.8,   1.4,   0.0,  1.20, 
 05/04/06, 09:00,  13.9,  20,   0.4,   0.8,   1.5,   0.0,  2.00, 
 05/04/06, 10:00,  13.9,  33,   0.4,   0.8,   1.5,   0.0,  2.64, 
 05/04/06, 11:00,  16.1,  27,   0.5,   0.8,   1.4,   0.0,  3.10, 
 05/04/06, 12:00,  16.5,  24,   0.4,   0.8,   1.5,   0.0,  3.15, 
 05/04/06, 13:00,  16.8,  21,   0.5,   0.7,   1.5,   0.0,  2.99, 
 05/04/06, 14:00,  15.5,  25,   0.5,   0.7,   1.5,   0.0,  2.53, 
 05/04/06, 15:00,  15.4,  24,   0.6,   0.7,   1.5,   0.0,  1.90, 
 05/04/06, 16:00,  14.3,  25,   0.6,   0.7,   1.5,   0.0,  1.05, 
 05/04/06, 17:00,  12.6,  30,   0.6,   0.7,   1.4,   0.0,  0.50, 
 05/04/06, 18:00,  10.6,  34,   0.6,   0.7,   1.5,   0.0,  0.14, 
 05/04/06, 19:00,   9.4,  35,   0.6,   0.7,   1.5,   0.0,  0.00, 
 05/04/06, 20:00,  11.4,  27,   0.6,   0.7,   1.5,   0.0,  0.00, 
 05/04/06, 21:00,  10.1,  29,   0.5,   0.7,   1.4,   0.0,  0.00, 
 05/04/06, 22:00,   8.6,  34,   0.4,   0.7,   1.4,   0.0,  0.00, 
 05/04/06, 23:00,   8.8,  31,   0.4,   0.7,   1.4,   0.0,  0.00, 
 05/04/07, 00:00,   8.3,  35,   0.5,   0.7,   1.4,   0.0,  0.00, 
 05/04/07, 01:00,   9.1,  34,   0.4,   0.7,   1.4,   0.0,  0.00, 
 05/04/07, 02:00,   9.1,  38,   0.5,   0.7,   1.4,   0.0,  0.00, 
 05/04/07, 03:00,   9.2,  36,   0.5,   0.7,   1.4,   0.0,  0.00, 
 05/04/07, 04:00,   8.3,  44,   0.4,   0.7,   1.4,   0.0,  0.00, 
 05/04/07, 05:00,   7.0,  63,   0.4,   0.7,   1.4,   0.0,  0.00, 
 05/04/07, 06:00,   5.5,  85,   0.4,   0.7,   1.3,   0.0,  0.00, 
 05/04/07, 07:00,   4.8,  99,   0.4,   0.7,   1.3,   0.0,  0.00, 
 05/04/07, 08:00,   5.0,  99,   0.4,   0.7,   1.4,   0.0,  0.03, 
 05/04/07, 09:00,   5.8,  96,   0.4,   0.7,   1.4,   0.5,  0.15, 
 05/04/07, 10:00,   5.7,  99,   0.6,   0.7,   1.3,   1.0,  0.21, 
 05/04/07, 11:00,   6.8,  98,   0.6,   0.7,   1.3,   0.0,  0.87, 
 05/04/07, 12:00,   6.8,  99,   0.6,   0.7,   1.3,   0.0,  0.51, 
 05/04/07, 13:00,   6.7,  99,   0.7,   0.7,   1.4,   0.0,  0.47, 
 05/04/07, 14:00,   8.2,  99,   0.7,   0.7,   1.4,   0.0,  0.73, 
 05/04/07, 15:00,   8.3,  99,   0.8,   0.8,   1.3,   0.0,  0.54, 
 05/04/07, 16:00,   8.4,  99,   0.8,   0.9,   1.3,   0.0,  0.30, 
 05/04/07, 17:00,   8.6,  99,   0.9,   0.9,   1.5,   0.0,  0.18, 
 05/04/07, 18:00,   8.8,  99,   0.9,   0.9,   1.4,   0.0,  0.00, 
 05/04/07, 19:00,   9.0,  99,   0.9,   0.8,   1.4,   0.0,  0.00, 
 05/04/07, 20:00,   9.1,  99,   0.9,   0.8,   1.4,   0.0,  0.00, 
 05/04/07, 21:00,   9.5,  99,   0.9,   0.9,   1.4,   0.0,  0.00, 
 05/04/07, 22:00,   9.4,  99,   0.9,   0.9,   1.4,   0.0,  0.00, 
 05/04/07, 23:00,   9.6,  99,   1.0,   0.9,   1.4,   0.0,  0.00, 
 05/04/08, 00:00,   9.2,  99,   1.0,   0.9,   1.3,   0.0,  0.00, 
 05/04/08, 01:00,   9.0,  99,   1.1,   0.9,   1.4,   0.0,  0.00, 
 05/04/08, 02:00,   8.8,  99,   1.0,   0.9,   1.4,   0.0,  0.00, 
 05/04/08, 03:00,   9.0,  99,   1.1,   1.0,   1.4,   0.0,  0.00, 
 05/04/08, 04:00,   8.5,  99,   1.1,   1.0,   1.3,   0.0,  0.00, 
 05/04/08, 05:00,   7.8,  99,   1.2,   1.0,   1.4,   0.5,  0.00, 
 05/04/08, 06:00,   6.8,  99,   1.3,   1.0,   1.4,   0.0,  0.00, 
 05/04/08, 07:00,   5.9,  99,   1.3,   1.1,   1.4,   0.0,  0.17, 
 05/04/08, 08:00,   7.9,  79,   1.4,   1.1,   1.4,   0.0,  0.90, 
 05/04/08, 09:00,   8.7,  48,   1.5,   1.1,   1.4,   0.0,  1.89, 
 05/04/08, 10:00,   9.0,  41,   1.7,   1.1,   1.4,   0.0,  2.56, 
 05/04/08, 11:00,   9.0,  34,   2.3,   1.2,   1.5,   0.0,  3.08, 
 05/04/08, 12:00,   9.3,  32,   3.3,   1.2,   1.5,   0.0,  3.33, 
 05/04/08, 13:00,   9.4,  33,   4.3,   1.4,   1.5,   0.0,  3.33, 
 05/04/08, 14:00,   8.8,  35,   5.0,   1.6,   1.5,   0.0,  3.11, 
 05/04/08, 15:00,   8.5,  35,   5.1,   1.9,   1.6,   0.0,  2.61, 
 05/04/08, 16:00,   7.2,  41,   5.0,   2.0,   1.6,   0.0,  1.96, 
 05/04/08, 17:00,   6.1,  48,   4.8,   2.3,   1.6,   0.0,  1.16, 
 05/04/08, 18:00,   3.8,  66,   4.6,   2.5,   1.6,   0.0,  0.44, 
 05/04/08, 19:00,   1.9,  76,   4.2,   2.6,   1.4,   0.0,  0.01, 
 05/04/08, 20:00,   1.4,  80,   4.0,   2.7,   1.4,   0.5,  0.00, 
 05/04/08, 21:00,   1.0,  81,   3.7,   2.8,   1.6,   0.0,  0.00, 
 05/04/08, 22:00,   0.8,  76,   3.4,   2.8,   1.6,   0.0,  0.00, 
 05/04/08, 23:00,   0.0,  72,   3.1,   2.8,   1.6,   0.0,  0.00, 
 05/04/09, 00:00,  -1.0,  82,   2.8,   2.8,   1.7,   0.0,  0.00, 
 05/04/09, 01:00,  -0.3,  81,   2.6,   2.7,   1.7,   0.0,  0.00, 
 05/04/09, 02:00,  -1.7,  85,   2.4,   2.7,   1.8,   0.0,  0.00, 
 05/04/09, 03:00,  -1.5,  88,   2.2,   2.6,   1.8,   0.0,  0.00, 
 05/04/09, 04:00,   2.3,  41,   2.0,   2.5,   1.8,   0.0,  0.00, 
 05/04/09, 05:00,   4.7,  20,   2.0,   2.5,   1.9,   0.0,  0.00, 
 05/04/09, 06:00,   3.7,  24,   1.7,   2.4,   1.8,   0.0,  0.01, 
 05/04/09, 07:00,   7.2,  14,   1.6,   2.3,   1.8,   0.0,  0.44, 
 05/04/09, 08:00,   6.8,  33,   1.6,   2.3,   1.9,   0.0,  1.26, 
 05/04/09, 09:00,   9.1,  29,   1.5,   2.2,   2.0,   0.0,  2.09, 
 05/04/09, 10:00,   9.3,  44,   1.6,   2.1,   2.0,   0.0,  2.73, 
 05/04/09, 11:00,  11.4,  38,   2.4,   2.1,   2.0,   0.0,  3.20, 
 05/04/09, 12:00,  13.9,  28,   3.6,   2.1,   2.0,   0.0,  3.39, 
 05/04/09, 13:00,  13.7,  25,   5.0,   2.1,   2.0,   0.0,  3.35, 
 05/04/09, 14:00,  14.6,  19,   5.9,   2.3,   2.0,   0.0,  3.14, 
 05/04/09, 15:00,  16.2,  16,   6.2,   2.5,   2.0,   0.0,  2.63, 
 05/04/09, 16:00,  14.8,  16,   6.2,   2.8,   2.1,   0.0,  1.99, 
 05/04/09, 17:00,  14.1,  20,   6.1,   3.1,   2.1,   0.0,  1.22, 
 05/04/09, 18:00,  11.4,  31,   6.0,   3.3,   2.1,   0.0,  0.46, 
 05/04/09, 19:00,   9.8,  33,   5.8,   3.5,   2.1,   0.0,  0.01, 
 05/04/09, 20:00,   7.4,  48,   5.5,   3.6,   2.1,   0.0,  0.00, 
 05/04/09, 21:00,   7.4,  48,   5.2,   3.7,   2.1,   0.0,  0.00, 
 05/04/09, 22:00,   5.9,  55,   4.9,   3.8,   2.2,   0.0,  0.00, 
 05/04/09, 23:00,   6.3,  52,   4.7,   3.8,   2.2,   0.0,  0.00, 
 05/04/10, 00:00,   7.8,  44,   4.4,   3.8,   2.2,   0.0,  0.00, 
 05/04/10, 01:00,   6.6,  46,   4.2,   3.8,   2.3,   0.0,  0.00, 
 05/04/10, 02:00,   8.2,  27,   4.0,   3.8,   2.3,   0.0,  0.00, 
 05/04/10, 03:00,   9.1,  32,   3.8,   3.7,   2.3,   0.0,  0.00, 
 05/04/10, 04:00,   7.5,  55,   3.5,   3.7,   2.3,   0.0,  0.00, 
 05/04/10, 05:00,   8.1,  65,   3.3,   3.6,   2.3,   0.0,  0.00, 
 05/04/10, 06:00,   9.2,  69,   3.2,   3.5,   2.4,   0.0,  0.00, 
 05/04/10, 07:00,   9.8,  74,   3.1,   3.5,   2.4,   0.0,  0.39, 
 05/04/10, 08:00,  10.7,  76,   3.2,   3.4,   2.5,   0.0,  0.97, 
 05/04/10, 09:00,  12.2,  60,   3.3,   3.3,   2.5,   0.0,  1.69, 
 05/04/10, 10:00,  13.7,  57,   3.6,   3.3,   2.6,   0.0,  2.04, 
 05/04/10, 11:00,  11.9,  78,   4.2,   3.3,   2.6,   0.0,  1.15, 
 05/04/10, 12:00,  13.6,  76,   4.8,   3.3,   2.6,   0.0,  1.95, 
 05/04/10, 13:00,  13.3,  74,   5.4,   3.4,   2.6,   0.0,  2.08, 
 05/04/10, 14:00,  13.2,  79,   6.0,   3.5,   2.6,   0.0,  1.37, 
 05/04/10, 15:00,  11.0,  92,   6.3,   3.6,   2.6,   0.0,  0.64, 
 05/04/10, 16:00,  11.0,  97,   6.6,   3.8,   2.7,   0.0,  0.46, 
 05/04/10, 17:00,  11.1,  93,   6.6,   3.9,   2.7,   0.0,  0.34, 
 05/04/10, 18:00,  10.7,  98,   6.6,   4.1,   2.7,   0.0,  0.06, 
 05/04/10, 19:00,  10.9,  98,   6.6,   4.2,   2.7,   0.0,  0.00, 
 05/04/10, 20:00,  11.0,  96,   6.4,   4.3,   2.7,   0.0,  0.00, 
 05/04/10, 21:00,  10.2,  99,   6.3,   4.4,   2.7,   0.0,  0.00, 
 05/04/10, 22:00,   9.8,  99,   6.3,   4.5,   2.8,   0.0,  0.00, 
 05/04/10, 23:00,   9.9,  99,   6.2,   4.6,   2.8,   0.5,  0.00, 
 05/04/11, 00:00,   9.3,  99,   6.2,   4.6,   2.8,   1.0,  0.00, 
 05/04/11, 01:00,   9.2,  99,   6.1,   4.6,   2.8,   1.0,  0.00, 
 05/04/11, 02:00,   8.9,  99,   6.1,   4.7,   2.8,   0.5,  0.00, 
 05/04/11, 03:00,   8.2,  99,   6.0,   4.7,   2.8,   2.0,  0.00, 
 05/04/11, 04:00,   6.4,  99,   6.0,   4.8,   3.0,   2.0,  0.00, 
 05/04/11, 05:00,   4.6,  99,   5.9,   4.8,   3.0,   0.5,  0.00, 
 05/04/11, 06:00,   3.7,  99,   5.8,   4.8,   2.8,   0.5,  0.00, 
 05/04/11, 07:00,   4.2,  99,   5.7,   4.8,   3.1,   0.0,  0.08, 
 05/04/11, 08:00,   4.7,  99,   5.6,   4.8,   3.1,   0.0,  0.65, 
 05/04/11, 09:00,   5.5,  99,   5.7,   4.8,   3.2,   0.0,  1.11, 
 05/04/11, 10:00,   6.0,  99,   5.9,   4.8,   3.2,   0.0,  1.37, 
 05/04/11, 11:00,   5.2,  99,   6.3,   4.8,   3.2,   0.0,  1.33, 
 05/04/11, 12:00,   6.6,  99,   6.7,   4.9,   3.3,   0.0,  0.92, 
 05/04/11, 13:00,   9.3,  99,   6.8,   4.9,   3.3,   0.5,  2.45, 
 05/04/11, 14:00,   9.1,  99,   7.2,   5.0,   3.4,   0.0,  2.71, 
 05/04/11, 15:00,   9.4,  96,   7.5,   5.1,   3.4,   0.0,  1.15, 
 05/04/11, 16:00,   9.8,  94,   7.8,   5.2,   3.4,   0.0,  1.44, 
 05/04/11, 17:00,   7.9,  92,   7.9,   5.3,   3.4,   0.0,  1.04, 
 05/04/11, 18:00,   6.6,  99,   7.9,   5.4,   3.4,   0.0,  0.16, 
 05/04/11, 19:00,   4.9,  99,   7.7,   5.5,   3.5,   0.0,  0.00, 
 05/04/11, 20:00,   4.2,  99,   7.5,   5.6,   3.5,   0.0,  0.00, 
 05/04/11, 21:00,   2.5,  99,   7.2,   5.7,   3.5,   0.0,  0.00, 
 05/04/11, 22:00,   2.2,  99,   7.1,   5.7,   3.5,   0.0,  0.00, 
 05/04/11, 23:00,   5.6,  99,   6.8,   5.7,   3.6,   0.0,  0.00, 
 05/04/12, 00:00,   7.1,  99,   6.7,   5.7,   3.6,   0.0,  0.00, 
 05/04/12, 01:00,   6.0,  99,   6.4,   5.7,   3.6,   0.0,  0.00, 
 05/04/12, 02:00,   6.5,  99,   6.3,   5.6,   3.7,   0.0,  0.00, 
 05/04/12, 03:00,   7.4,  99,   6.2,   5.6,   3.6,   0.0,  0.00, 
 05/04/12, 04:00,   6.5,  99,   6.2,   5.6,   3.7,   0.0,  0.00, 
 05/04/12, 05:00,   7.8,  99,   6.1,   5.5,   3.8,   0.0,  0.00, 
 05/04/12, 06:00,   7.8,  99,   6.0,   5.5,   3.8,   0.0,  0.00, 
 05/04/12, 07:00,   7.8,  99,   6.0,   5.5,   3.8,   0.5,  0.07, 
 05/04/12, 08:00,   7.8,  99,   6.0,   5.4,   3.8,   0.0,  0.33, 
 05/04/12, 09:00,   7.4,  99,   6.0,   5.4,   3.8,   0.0,  0.40, 
 05/04/12, 10:00,   7.1,  99,   6.1,   5.4,   3.9,   0.0,  0.37, 
 05/04/12, 11:00,   7.6,  99,   6.2,   5.4,   3.9,   0.0,  0.70, 
 05/04/12, 12:00,   7.1,  99,   6.4,   5.4,   3.9,   0.0,  0.43, 
 05/04/12, 13:00,   6.1,  99,   6.5,   5.4,   3.9,   1.0,  0.23, 
 05/04/12, 14:00,   5.7,  99,   6.7,   5.4,   3.9,   3.5,  0.27, 
 05/04/12, 15:00,   5.9,  99,   6.7,   5.4,   3.9,   1.5,  0.30, 
 05/04/12, 16:00,   5.9,  99,   6.7,   5.5,   4.0,   1.0,  0.32, 
 05/04/12, 17:00,   5.9,  99,   6.7,   5.5,   4.0,   0.5,  0.28, 
 05/04/12, 18:00,   4.6,  99,   6.6,   5.6,   4.0,   0.5,  0.03, 
 05/04/12, 19:00,   4.5,  99,   6.7,   5.6,   4.0,   0.5,  0.00, 
 05/04/12, 20:00,   4.5,  99,   6.4,   5.6,   4.1,   0.5,  0.00, 
 05/04/12, 21:00,   4.6,  99,   6.3,   5.6,   4.1,   0.0,  0.00, 
 05/04/12, 22:00,   4.2,  99,   6.2,   5.6,   4.1,   0.5,  0.00, 
 05/04/12, 23:00,   4.3,  99,   6.1,   5.6,   4.1,   0.5,  0.00, 
 05/04/13, 00:00,   4.2,  99,   6.0,   5.6,   4.1,   1.0,  0.00, 
 05/04/13, 01:00,   4.2,  99,   5.8,   5.5,   4.1,   0.5,  0.00, 
 05/04/13, 02:00,   4.5,  99,   5.7,   5.5,   4.1,   0.5,  0.00, 
 05/04/13, 03:00,   4.4,  99,   5.6,   5.5,   4.2,   0.5,  0.00, 
 05/04/13, 04:00,   2.8,  99,   5.5,   5.4,   4.1,   0.5,  0.00, 
 05/04/13, 05:00,   1.8,  99,   5.4,   5.4,   4.1,   1.0,  0.00, 
 05/04/13, 06:00,   0.4,  99,   5.3,   5.4,   4.1,   1.0,  0.00, 
 05/04/13, 07:00,   0.3,  99,   5.1,   5.3,   4.2,   0.5,  0.15, 
 05/04/13, 08:00,   1.0,  99,   5.0,   5.3,   4.3,   0.0,  0.44, 
 05/04/13, 09:00,   0.0,  99,   4.9,   5.2,   4.3,   0.5,  0.25, 
 05/04/13, 10:00,   1.3,  99,   4.9,   5.1,   4.2,   0.0,  0.90, 
 05/04/13, 11:00,   3.0,  99,   5.0,   5.1,   4.3,   0.0,  1.93, 
 05/04/13, 12:00,   3.6,  98,   5.4,   5.0,   4.3,   0.0,  1.82, 
 05/04/13, 13:00,   3.9,  82,   5.9,   5.0,   4.3,   0.0,  3.03, 
 05/04/13, 14:00,   2.9,  82,   6.4,   5.0,   4.3,   0.0,  1.66, 
 05/04/13, 15:00,   5.3,  68,   6.6,   5.1,   4.2,   0.0,  2.76, 
 05/04/13, 16:00,   4.1,  63,   6.8,   5.2,   4.3,   0.0,  2.17, 
 05/04/13, 17:00,   2.3,  61,   6.6,   5.3,   4.2,   0.0,  1.22, 
 05/04/13, 18:00,   1.4,  51,   6.4,   5.4,   4.3,   0.0,  0.51, 
 05/04/13, 19:00,   0.3,  52,   6.1,   5.4,   4.3,   0.0,  0.02, 
 05/04/13, 20:00,  -0.7,  56,   5.7,   5.4,   4.3,   0.0,  0.00, 
 05/04/13, 21:00,  -1.1,  57,   5.4,   5.4,   4.3,   0.0,  0.00, 
 05/04/13, 22:00,  -0.7,  55,   5.0,   5.4,   4.3,   0.0,  0.00, 
 05/04/13, 23:00,  -1.2,  63,   4.7,   5.3,   4.2,   0.0,  0.00, 
 05/04/14, 00:00,  -1.0,  53,   4.4,   5.2,   4.3,   0.0,  0.00, 
 05/04/14, 01:00,  -0.3,  56,   4.2,   5.1,   4.2,   0.0,  0.00, 
 05/04/14, 02:00,   0.0,  54,   3.9,   5.0,   4.2,   0.0,  0.00, 
 05/04/14, 03:00,   0.7,  54,   3.7,   4.9,   4.2,   0.0,  0.00, 
 05/04/14, 04:00,   1.1,  50,   3.5,   4.8,   4.2,   0.0,  0.00, 
 05/04/14, 05:00,   2.2,  44,   3.3,   4.6,   4.2,   0.0,  0.00, 
 05/04/14, 06:00,   3.3,  39,   3.1,   4.6,   4.2,   0.0,  0.01, 
 05/04/14, 07:00,   3.7,  48,   2.9,   4.4,   4.2,   0.0,  0.57, 
 05/04/14, 08:00,   4.6,  47,   2.8,   4.3,   4.2,   0.0,  1.43, 
 05/04/14, 09:00,   5.5,  48,   2.8,   4.2,   4.2,   0.0,  2.22, 
 05/04/14, 10:00,   7.3,  48,   2.9,   4.1,   4.3,   0.0,  2.87, 
 05/04/14, 11:00,   9.7,  37,   3.8,   4.0,   4.3,   0.0,  3.32, 
 05/04/14, 12:00,  10.6,  30,   5.1,   4.0,   4.3,   0.0,  3.56, 
 05/04/14, 13:00,  10.8,  23,   6.3,   4.0,   4.3,   0.0,  3.54, 
 05/04/14, 14:00,  10.8,  34,   7.1,   4.2,   4.3,   0.0,  3.20, 
 05/04/14, 15:00,  11.5,  33,   7.3,   4.4,   4.2,   0.0,  2.60, 
 05/04/14, 16:00,  10.8,  33,   7.2,   4.6,   4.2,   0.0,  2.12, 
 05/04/14, 17:00,   9.7,  37,   7.2,   4.9,   4.2,   0.0,  1.36, 
 05/04/14, 18:00,   8.6,  44,   7.0,   5.0,   4.2,   0.0,  0.54, 
 05/04/14, 19:00,   6.5,  51,   6.8,   5.2,   4.2,   0.0,  0.03, 
 05/04/14, 20:00,   5.8,  57,   6.6,   5.3,   4.2,   0.0,  0.00, 
 05/04/14, 21:00,   5.5,  57,   6.2,   5.3,   4.2,   0.0,  0.00, 
 05/04/14, 22:00,   4.2,  65,   5.9,   5.3,   4.2,   0.0,  0.00, 
 05/04/14, 23:00,   3.9,  64,   5.6,   5.4,   4.2,   0.0,  0.00, 
 05/04/15, 00:00,   4.4,  61,   5.4,   5.3,   4.2,   0.0,  0.00, 
 05/04/15, 01:00,   3.7,  63,   5.1,   5.3,   4.2,   0.0,  0.00, 
 05/04/15, 02:00,   3.4,  67,   4.8,   5.2,   4.2,   0.0,  0.00, 
 05/04/15, 03:00,   3.4,  69,   4.6,   5.2,   4.3,   0.0,  0.00, 
 05/04/15, 04:00,   3.2,  67,   4.4,   5.1,   4.3,   0.0,  0.00, 
 05/04/15, 05:00,   2.8,  63,   4.2,   5.0,   4.3,   0.0,  0.00, 
 05/04/15, 06:00,   4.0,  54,   4.0,   4.9,   4.3,   0.0,  0.01, 
 05/04/15, 07:00,   5.8,  61,   3.8,   4.8,   4.2,   0.0,  0.56, 
 05/04/15, 08:00,   6.7,  63,   3.9,   4.7,   4.3,   0.0,  1.36, 
 05/04/15, 09:00,   8.1,  60,   4.0,   4.6,   4.3,   0.0,  2.01, 
 05/04/15, 10:00,   9.4,  55,   4.2,   4.6,   4.3,   0.0,  2.91, 
 05/04/15, 11:00,  10.9,  49,   5.1,   4.5,   4.3,   0.0,  3.10, 
 05/04/15, 12:00,  11.4,  42,   6.0,   4.5,   4.2,   0.0,  3.10, 
 05/04/15, 13:00,  11.5,  36,   7.2,   4.6,   4.3,   0.0,  3.40, 
 05/04/15, 14:00,  12.4,  36,   7.8,   4.7,   4.3,   0.0,  3.12, 
 05/04/15, 15:00,  12.5,  39,   7.9,   5.0,   4.3,   0.0,  2.52, 
 05/04/15, 16:00,  10.9,  45,   8.0,   5.2,   4.3,   0.0,  1.94, 
 05/04/15, 17:00,   9.4,  51,   8.0,   5.4,   4.3,   0.0,  0.99, 
 05/04/15, 18:00,   8.6,  59,   8.0,   5.6,   4.3,   0.0,  0.29, 
 05/04/15, 19:00,   5.1,  76,   7.8,   5.7,   4.3,   0.0,  0.01, 
 05/04/15, 20:00,   5.5,  78,   7.5,   5.8,   4.3,   0.0,  0.00, 
 05/04/15, 21:00,   4.1,  85,   7.2,   5.9,   4.3,   0.0,  0.00, 
 05/04/15, 22:00,   2.9,  93,   6.9,   5.9,   4.3,   0.0,  0.00, 
 05/04/15, 23:00,   3.0,  93,   6.7,   5.9,   4.4,   0.0,  0.00, 
 05/04/16, 00:00,   3.2,  95,   6.5,   5.9,   4.4,   0.0,  0.00, 
 05/04/16, 01:00,   2.9,  97,   6.2,   5.9,   4.4,   0.0,  0.00, 